Location: Newark
(52.3500°N, 175.9667°E)
Time: 22:39:47
(UTC+00:00)

Altair - Pass Details

Date: 02 May 2021
Orbit: 1501 x 1683 km, 47.2° (Epoch: 05 May)

Event Time Altitude Azimuth Distance (km) Brightness Sun altitude
Rises 17:53:17 0° 267° (W) 4,905 9.5 9.3°
Reaches altitude 10° 17:56:30 10° 265° (W) 3,900 9.0 9.8°
Maximum altitude 18:06:18 65° 187° (S) 1,742 7.9 11.3°
Drops below altitude 10° 18:15:43 10° 108° (ESE) 3,757 10.9 12.7°
Sets 18:18:45 0° 106° (ESE) 4,717 11.4 13.2°
